{"data":{"norad_id":64021,"epoch":"2026-05-25T02:24:34.562592Z","epoch_age_seconds":79678,"freshness":"FRESH","line1":"1 64021U 25101AD  26145.10040003  .00009917  00000+0  36936-3 0  9993","line2":"2 64021  42.9990 286.2229 0000592  40.5661 319.5234 15.27585251 58749","mean_motion":15.27585251,"eccentricity":5.92e-5,"inclination_deg":42.999,"raan_deg":286.2229,"arg_perigee_deg":40.5661,"mean_anomaly_deg":319.5234,"bstar":0.00036936,"rev_number":5874,"period_min":94.266424676288,"perigee_km":482.62719141559,"apogee_km":483.43955398772,"semimajor_km":6861.1703727017,"source":"CELESTRAK","updated_at":"2026-05-25T13:38:20.223806Z"}}